Time,TemperatureF,DewpointF,PressureIn,WindDirection,WindDirectionDegrees,WindSpeedMPH,WindSpeedGustMPH,Humidity,HourlyPrecipIn,Conditions,Clouds,dailyrainin,SoftwareType,DateUTC
2013-06-02 00:06:00,67.6,61.0,29.70,SW,224,12.0,18.0,80,0.00,,,0.00,weatherlink.com 1.10,2013-06-02 04:06:00,
2013-06-02 00:22:00,66.6,60.0,29.70,SSW,213,8.0,14.0,80,0.00,,,0.00,weatherlink.com 1.10,2013-06-02 04:22:00,
2013-06-02 00:37:00,65.8,60.0,29.70,SSW,211,7.0,12.0,80,0.00,,,0.00,weatherlink.com 1.10,2013-06-02 04:37:00,
2013-06-02 00:52:00,65.2,59.0,29.70,SW,215,5.0,13.0,79,0.00,,,0.00,weatherlink.com 1.10,2013-06-02 04:52:00,
2013-06-02 01:07:00,64.7,58.0,29.71,SSW,210,7.0,11.0,79,0.00,,,0.00,weatherlink.com 1.10,2013-06-02 05:07:00,
2013-06-02 01:22:00,64.1,58.0,29.71,South,190,7.0,13.0,81,0.00,,,0.00,weatherlink.com 1.10,2013-06-02 05:22:00,
2013-06-02 01:37:00,63.7,58.0,29.71,SW,217,10.0,16.0,82,0.00,,,0.00,weatherlink.com 1.10,2013-06-02 05:37:00,
2013-06-02 01:52:00,63.1,58.0,29.72,SSW,210,5.0,14.0,84,0.00,,,0.00,weatherlink.com 1.10,2013-06-02 05:52:00,
2013-06-02 02:07:00,62.6,58.0,29.71,SW,226,5.0,11.0,86,0.00,,,0.00,weatherlink.com 1.10,2013-06-02 06:07:00,
2013-06-02 02:22:00,62.1,59.0,29.71,SW,223,4.0,10.0,88,0.00,,,0.00,weatherlink.com 1.10,2013-06-02 06:22:00,
2013-06-02 02:37:00,62.1,59.0,29.71,WSW,240,7.0,14.0,89,0.00,,,0.00,weatherlink.com 1.10,2013-06-02 06:37:00,
2013-06-02 02:52:00,62.1,59.0,29.71,WSW,238,8.0,15.0,90,0.00,,,0.00,weatherlink.com 1.10,2013-06-02 06:52:00,
2013-06-02 03:07:00,62.1,59.0,29.72,SSW,207,7.0,14.0,90,0.00,,,0.00,weatherlink.com 1.10,2013-06-02 07:07:00,
2013-06-02 03:22:00,62.0,59.0,29.72,SSW,212,6.0,14.0,91,0.00,,,0.00,weatherlink.com 1.10,2013-06-02 07:22:00,
2013-06-02 03:37:00,61.8,59.0,29.72,WSW,255,5.0,12.0,91,0.00,,,0.00,weatherlink.com 1.10,2013-06-02 07:37:00,
2013-06-02 03:52:00,61.8,59.0,29.72,SW,236,12.0,12.0,91,0.00,,,0.00,weatherlink.com 1.10,2013-06-02 07:52:00,
2013-06-02 04:07:00,61.8,59.0,29.73,SSW,211,11.0,14.0,91,0.00,,,0.00,weatherlink.com 1.10,2013-06-02 08:07:00,
2013-06-02 04:22:00,61.7,59.0,29.73,SW,219,7.0,11.0,91,0.00,,,0.00,weatherlink.com 1.10,2013-06-02 08:22:00,
2013-06-02 04:37:00,61.3,59.0,29.73,SSW,198,5.0,12.0,92,0.00,,,0.00,weatherlink.com 1.10,2013-06-02 08:37:00,
2013-06-02 04:52:00,61.2,59.0,29.73,SW,225,8.0,11.0,92,0.00,,,0.00,weatherlink.com 1.10,2013-06-02 08:52:00,
2013-06-02 05:07:00,61.2,59.0,29.74,SW,236,6.0,11.0,92,0.00,,,0.00,weatherlink.com 1.10,2013-06-02 09:07:00,
2013-06-02 05:22:00,61.3,59.0,29.73,SW,233,6.0,10.0,92,0.00,,,0.00,weatherlink.com 1.10,2013-06-02 09:22:00,
2013-06-02 05:37:00,61.1,59.0,29.74,SW,229,5.0,7.0,92,0.00,,,0.00,weatherlink.com 1.10,2013-06-02 09:37:00,
2013-06-02 05:52:00,61.0,59.0,29.75,SW,225,4.0,9.0,92,0.00,,,0.00,weatherlink.com 1.10,2013-06-02 09:52:00,
2013-06-02 06:07:00,60.9,59.0,29.76,SW,228,6.0,10.0,92,0.00,,,0.00,weatherlink.com 1.10,2013-06-02 10:07:00,
2013-06-02 06:22:00,60.9,59.0,29.76,SW,217,9.0,10.0,92,0.00,,,0.00,weatherlink.com 1.10,2013-06-02 10:22:00,
2013-06-02 06:37:00,61.0,59.0,29.77,SW,233,8.0,12.0,92,0.00,,,0.00,weatherlink.com 1.10,2013-06-02 10:37:00,
2013-06-02 06:52:00,61.4,59.0,29.77,WSW,244,7.0,14.0,91,0.00,,,0.00,weatherlink.com 1.10,2013-06-02 10:52:00,
2013-06-02 07:08:00,61.6,59.0,29.78,West,280,9.0,12.0,91,0.00,,,0.00,weatherlink.com 1.10,2013-06-02 11:08:00,
2013-06-02 07:23:00,61.6,59.0,29.78,WSW,256,7.0,14.0,90,0.00,,,0.00,weatherlink.com 1.10,2013-06-02 11:23:00,
2013-06-02 07:38:00,61.8,59.0,29.79,SW,233,5.0,8.0,90,0.00,,,0.00,weatherlink.com 1.10,2013-06-02 11:38:00,
2013-06-02 07:53:00,62.1,59.0,29.78,SW,224,7.0,10.0,90,0.00,,,0.00,weatherlink.com 1.10,2013-06-02 11:53:00,
2013-06-02 08:08:00,62.3,59.0,29.79,SW,231,6.0,10.0,89,0.00,,,0.00,weatherlink.com 1.10,2013-06-02 12:08:00,
2013-06-02 08:23:00,62.4,59.0,29.80,WSW,249,7.0,11.0,89,0.00,,,0.00,weatherlink.com 1.10,2013-06-02 12:23:00,
2013-06-02 08:38:00,62.5,59.0,29.80,WSW,258,9.0,15.0,88,0.00,,,0.00,weatherlink.com 1.10,2013-06-02 12:38:00,
2013-06-02 08:53:00,62.6,59.0,29.81,SW,226,9.0,10.0,88,0.00,,,0.00,weatherlink.com 1.10,2013-06-02 12:53:00,
2013-06-02 09:08:00,62.6,59.0,29.81,WSW,252,4.0,12.0,88,0.00,,,0.00,weatherlink.com 1.10,2013-06-02 13:08:00,
2013-06-02 09:23:00,62.6,59.0,29.81,WSW,255,5.0,12.0,88,0.00,,,0.00,weatherlink.com 1.10,2013-06-02 13:23:00,
2013-06-02 09:53:00,62.8,59.0,29.81,WNW,285,5.0,10.0,88,0.00,,,0.00,weatherlink.com 1.10,2013-06-02 13:53:00,
2013-06-02 10:08:00,63.3,59.0,29.81,WSW,255,5.0,9.0,86,0.00,,,0.00,weatherlink.com 1.10,2013-06-02 14:08:00,
2013-06-02 10:23:00,63.5,59.0,29.81,SSW,201,5.0,8.0,85,0.00,,,0.00,weatherlink.com 1.10,2013-06-02 14:23:00,
2013-06-02 10:38:00,64.2,59.0,29.82,WSW,242,5.0,8.0,84,0.00,,,0.00,weatherlink.com 1.10,2013-06-02 14:38:00,
2013-06-02 10:53:00,64.1,60.0,29.82,WSW,253,5.0,8.0,85,0.00,,,0.00,weatherlink.com 1.10,2013-06-02 14:53:00,
2013-06-02 11:08:00,63.8,59.0,29.83,SW,222,6.0,9.0,84,0.00,,,0.00,weatherlink.com 1.10,2013-06-02 15:08:00,
2013-06-02 11:23:00,62.1,58.0,29.84,West,275,4.0,9.0,86,0.00,,,0.00,weatherlink.com 1.10,2013-06-02 15:23:00,
2013-06-02 11:38:00,61.6,58.0,29.84,West,276,6.0,13.0,87,0.00,,,0.00,weatherlink.com 1.10,2013-06-02 15:38:00,
2013-06-02 11:53:00,62.0,59.0,29.85,WNW,287,5.0,12.0,88,0.00,,,0.00,weatherlink.com 1.10,2013-06-02 15:53:00,
2013-06-02 12:08:00,62.2,58.0,29.86,West,278,3.0,12.0,85,0.00,,,0.00,weatherlink.com 1.10,2013-06-02 16:08:00,
2013-06-02 12:23:00,62.0,57.0,29.86,WNW,285,9.0,12.0,84,0.00,,,0.00,weatherlink.com 1.10,2013-06-02 16:23:00,
2013-06-02 12:38:00,61.0,56.0,29.87,NNE,30,7.0,10.0,84,0.00,,,0.00,weatherlink.com 1.10,2013-06-02 16:38:00,
2013-06-02 12:53:00,60.4,55.0,29.87,NW,309,3.0,12.0,83,0.00,,,0.00,weatherlink.com 1.10,2013-06-02 16:53:00,
2013-06-02 13:08:00,60.3,55.0,29.88,WNW,292,6.0,9.0,83,0.00,,,0.00,weatherlink.com 1.10,2013-06-02 17:08:00,
2013-06-02 13:23:00,61.2,56.0,29.88,West,281,8.0,8.0,84,0.00,,,0.00,weatherlink.com 1.10,2013-06-02 17:23:00,
2013-06-02 13:38:00,60.6,55.0,29.89,West,276,9.0,13.0,82,0.00,,,0.00,weatherlink.com 1.10,2013-06-02 17:38:00,
2013-06-02 13:53:00,60.9,55.0,29.89,WNW,302,6.0,11.0,80,0.00,,,0.00,weatherlink.com 1.10,2013-06-02 17:53:00,
2013-06-02 14:08:00,61.4,55.0,29.89,NW,309,6.0,10.0,80,0.00,,,0.00,weatherlink.com 1.10,2013-06-02 18:08:00,
2013-06-02 14:23:00,61.3,55.0,29.89,WNW,301,6.0,13.0,79,0.00,,,0.00,weatherlink.com 1.10,2013-06-02 18:23:00,
2013-06-02 14:38:00,60.9,55.0,29.89,North,350,6.0,14.0,80,0.00,,,0.00,weatherlink.com 1.10,2013-06-02 18:38:00,
2013-06-02 14:53:00,60.8,54.0,29.90,WNW,300,7.0,13.0,78,0.00,,,0.00,weatherlink.com 1.10,2013-06-02 18:53:00,
2013-06-02 15:08:00,60.9,54.0,29.91,WNW,282,5.0,13.0,78,0.00,,,0.00,weatherlink.com 1.10,2013-06-02 19:08:00,
2013-06-02 15:23:00,60.2,53.0,29.91,NW,311,4.0,14.0,77,0.00,,,0.00,weatherlink.com 1.10,2013-06-02 19:23:00,
2013-06-02 15:38:00,61.1,54.0,29.91,NW,313,7.0,12.0,77,0.00,,,0.00,weatherlink.com 1.10,2013-06-02 19:38:00,
2013-06-02 15:53:00,61.7,54.0,29.91,NW,326,4.0,14.0,75,0.00,,,0.00,weatherlink.com 1.10,2013-06-02 19:53:00,
2013-06-02 16:08:00,61.2,53.0,29.91,NW,304,7.0,13.0,75,0.00,,,0.00,weatherlink.com 1.10,2013-06-02 20:08:00,
2013-06-02 16:23:00,60.3,53.0,29.91,NW,315,4.0,13.0,76,0.00,,,0.00,weatherlink.com 1.10,2013-06-02 20:23:00,
2013-06-02 16:38:00,60.4,53.0,29.91,WNW,293,6.0,13.0,76,0.00,,,0.00,weatherlink.com 1.10,2013-06-02 20:38:00,
2013-06-02 16:53:00,60.9,53.0,29.92,WNW,283,10.0,16.0,74,0.00,,,0.00,weatherlink.com 1.10,2013-06-02 20:53:00,
2013-06-02 17:08:00,60.1,52.0,29.92,NNE,22,3.0,15.0,75,0.00,,,0.00,weatherlink.com 1.10,2013-06-02 21:08:00,
2013-06-02 17:24:00,60.0,52.0,29.93,WNW,303,2.0,14.0,76,0.00,,,0.00,weatherlink.com 1.10,2013-06-02 21:24:00,
2013-06-02 17:39:00,59.3,52.0,29.92,NNE,29,3.0,12.0,76,0.00,,,0.00,weatherlink.com 1.10,2013-06-02 21:39:00,
2013-06-02 17:54:00,59.5,51.0,29.92,NW,314,5.0,13.0,74,0.00,,,0.00,weatherlink.com 1.10,2013-06-02 21:54:00,
2013-06-02 18:09:00,58.7,50.0,29.93,WNW,297,6.0,15.0,74,0.00,,,0.00,weatherlink.com 1.10,2013-06-02 22:09:00,
2013-06-02 18:24:00,58.2,51.0,29.93,West,281,7.0,13.0,76,0.00,,,0.00,weatherlink.com 1.10,2013-06-02 22:24:00,
2013-06-02 18:39:00,57.8,49.0,29.92,NW,313,10.0,15.0,73,0.00,,,0.00,weatherlink.com 1.10,2013-06-02 22:39:00,
2013-06-02 18:54:00,57.3,49.0,29.93,NW,309,5.0,14.0,75,0.00,,,0.00,weatherlink.com 1.10,2013-06-02 22:54:00,
2013-06-02 19:09:00,57.0,49.0,29.93,NW,316,4.0,12.0,74,0.00,,,0.00,weatherlink.com 1.10,2013-06-02 23:09:00,
2013-06-02 19:24:00,57.2,49.0,29.94,NW,307,3.0,10.0,75,0.00,,,0.00,weatherlink.com 1.10,2013-06-02 23:24:00,
2013-06-02 19:39:00,56.5,48.0,29.94,WNW,291,11.0,14.0,74,0.00,,,0.00,weatherlink.com 1.10,2013-06-02 23:39:00,
2013-06-02 19:54:00,56.5,48.0,29.95,NNE,19,4.0,16.0,74,0.00,,,0.00,weatherlink.com 1.10,2013-06-02 23:54:00,
2013-06-02 20:09:00,55.3,48.0,29.95,NNE,16,5.0,14.0,75,0.00,,,0.00,weatherlink.com 1.10,2013-06-03 00:09:00,
2013-06-02 20:24:00,54.5,47.0,29.95,NW,304,7.0,13.0,75,0.00,,,0.00,weatherlink.com 1.10,2013-06-03 00:24:00,
2013-06-02 20:39:00,54.1,46.0,29.96,WNW,297,5.0,15.0,75,0.00,,,0.00,weatherlink.com 1.10,2013-06-03 00:39:00,
2013-06-02 20:54:00,53.7,47.0,29.95,WNW,298,7.0,11.0,77,0.00,,,0.00,weatherlink.com 1.10,2013-06-03 00:54:00,
2013-06-02 21:09:00,53.4,46.0,29.95,NW,319,4.0,11.0,76,0.00,,,0.00,weatherlink.com 1.10,2013-06-03 01:09:00,
2013-06-02 21:24:00,52.7,46.0,29.96,NW,313,5.0,10.0,77,0.00,,,0.00,weatherlink.com 1.10,2013-06-03 01:24:00,
2013-06-02 21:39:00,52.0,44.0,29.96,WNW,301,5.0,13.0,75,0.00,,,0.00,weatherlink.com 1.10,2013-06-03 01:39:00,
2013-06-02 21:54:00,51.1,44.0,29.96,WNW,299,6.0,11.0,76,0.00,,,0.00,weatherlink.com 1.10,2013-06-03 01:54:00,
2013-06-02 22:09:00,50.5,43.0,29.97,WNW,302,5.0,11.0,76,0.00,,,0.00,weatherlink.com 1.10,2013-06-03 02:09:00,
2013-06-02 22:24:00,50.1,43.0,29.98,NW,307,3.0,8.0,77,0.00,,,0.00,weatherlink.com 1.10,2013-06-03 02:24:00,
2013-06-02 22:39:00,49.6,43.0,29.98,WNW,297,2.0,7.0,78,0.00,,,0.00,weatherlink.com 1.10,2013-06-03 02:39:00,
2013-06-02 22:54:00,49.2,42.0,29.98,SW,228,1.0,10.0,77,0.00,,,0.00,weatherlink.com 1.10,2013-06-03 02:54:00,
2013-06-02 23:10:00,48.7,42.0,29.99,WNW,303,2.0,9.0,78,0.00,,,0.00,weatherlink.com 1.10,2013-06-03 03:10:00,
2013-06-02 23:25:00,48.2,42.0,30.00,NW,314,1.0,7.0,79,0.00,,,0.00,weatherlink.com 1.10,2013-06-03 03:25:00,
2013-06-02 23:40:00,47.7,42.0,30.00,NW,313,4.0,4.0,80,0.00,,,0.00,weatherlink.com 1.10,2013-06-03 03:40:00,
2013-06-02 23:55:00,47.4,42.0,30.00,NW,305,1.0,3.0,81,0.00,,,0.00,weatherlink.com 1.10,2013-06-03 03:55:00,